Time,TemperatureF,DewpointF,PressureIn,WindDirection,WindDirectionDegrees,WindSpeedMPH,WindSpeedGustMPH,Humidity,HourlyPrecipIn,Conditions,Clouds,dailyrainin,SoftwareType,DateUTC
2013-09-08 00:02:00,-999.0,-99.9,30.00,SSW,207,2.0,4.0,-999,-99.99,,,-99.99,,2013-09-08 04:02:00,
2013-09-08 00:24:00,69.0,64.0,30.00,SSE,160,3.0,5.0,84,0.00,,,0.00,,2013-09-08 04:24:00,
2013-09-08 00:43:00,69.0,64.0,29.99,South,190,2.0,3.0,84,0.00,,,0.00,,2013-09-08 04:43:00,
2013-09-08 00:54:00,69.0,64.0,29.99,SSE,157,1.0,3.0,85,0.00,,,0.00,,2013-09-08 04:54:00,
2013-09-08 01:13:00,69.0,65.0,29.99,SSE,165,1.0,3.0,86,0.00,,,0.00,,2013-09-08 05:13:00,
2013-09-08 01:23:00,68.0,64.0,29.98,SSE,166,2.0,3.0,86,0.00,,,0.00,,2013-09-08 05:23:00,
2013-09-08 01:52:00,68.0,64.0,29.99,South,186,3.0,3.0,88,0.00,,,0.00,,2013-09-08 05:52:00,
2013-09-08 02:13:00,68.0,64.0,29.99,SSE,166,2.0,4.0,88,0.00,,,0.00,,2013-09-08 06:13:00,
2013-09-08 02:22:00,68.0,64.0,29.98,South,175,3.0,5.0,87,0.00,,,0.00,,2013-09-08 06:22:00,
2013-09-08 02:53:00,68.0,64.0,29.98,South,182,3.0,7.0,88,0.00,,,0.00,,2013-09-08 06:53:00,
2013-09-08 03:12:00,68.0,64.0,29.98,SSE,166,3.0,7.0,88,0.00,,,0.00,,2013-09-08 07:12:00,
2013-09-08 03:23:00,67.0,64.0,29.97,South,179,2.0,4.0,89,0.00,,,0.00,,2013-09-08 07:23:00,
2013-09-08 03:52:00,67.0,64.0,29.96,South,191,1.0,4.0,91,0.00,,,0.00,,2013-09-08 07:52:00,
2013-09-08 04:12:00,66.0,63.0,29.96,SW,235,1.0,3.0,91,0.00,,,0.00,,2013-09-08 08:12:00,
2013-09-08 04:22:00,66.0,64.0,29.96,SW,231,2.0,2.0,92,0.00,,,0.00,,2013-09-08 08:22:00,
2013-09-08 04:52:00,65.0,63.0,29.96,SW,222,1.0,2.0,93,0.00,,,0.00,,2013-09-08 08:52:00,
2013-09-08 05:11:00,65.0,63.0,29.95,SSW,212,1.0,2.0,93,0.00,,,0.00,,2013-09-08 09:11:00,
2013-09-08 05:22:00,65.0,63.0,29.95,SW,228,2.0,2.0,94,0.00,,,0.00,,2013-09-08 09:22:00,
2013-09-08 05:54:00,65.0,63.0,29.95,SW,221,2.0,2.0,94,0.00,,,0.00,,2013-09-08 09:54:00,
2013-09-08 06:12:00,65.0,63.0,29.95,SW,224,2.0,2.0,94,0.00,,,0.00,,2013-09-08 10:12:00,
2013-09-08 06:23:00,64.0,62.0,29.95,SSW,212,2.0,2.0,94,0.00,,,0.00,,2013-09-08 10:23:00,
2013-09-08 06:42:00,64.0,62.0,29.95,SSW,207,1.0,2.0,94,0.00,,,0.00,,2013-09-08 10:42:00,
2013-09-08 06:53:00,64.0,62.0,29.96,SW,224,0.0,1.0,94,0.00,,,0.00,,2013-09-08 10:53:00,
2013-09-08 07:12:00,64.0,62.0,29.96,SW,224,0.0,0.0,94,0.00,,,0.00,,2013-09-08 11:12:00,
2013-09-08 07:22:00,64.0,63.0,29.96,SW,224,0.0,0.0,95,0.00,,,0.00,,2013-09-08 11:22:00,
2013-09-08 07:42:00,64.0,63.0,29.96,SW,224,0.0,0.0,95,0.00,,,0.00,,2013-09-08 11:42:00,
2013-09-08 07:52:00,65.0,64.0,29.96,West,266,1.0,2.0,95,0.00,,,0.00,,2013-09-08 11:52:00,
2013-09-08 08:12:00,67.0,65.0,29.96,SW,229,1.0,3.0,92,0.00,,,0.00,,2013-09-08 12:12:00,
2013-09-08 08:22:00,69.0,65.0,29.96,WSW,257,1.0,4.0,88,0.00,,,0.00,,2013-09-08 12:22:00,
2013-09-08 10:22:00,76.0,67.0,29.96,NNW,338,2.0,5.0,75,0.00,,,0.00,,2013-09-08 14:22:00,
2013-09-08 10:42:00,77.0,67.0,29.96,NW,323,2.0,6.0,71,0.00,,,0.00,,2013-09-08 14:42:00,
2013-09-08 10:52:00,78.0,68.0,29.96,NW,315,2.0,6.0,71,0.00,,,0.00,,2013-09-08 14:52:00,
2013-09-08 11:12:00,79.0,68.0,29.97,North,349,2.0,5.0,68,0.00,,,0.00,,2013-09-08 15:12:00,
2013-09-08 11:23:00,80.0,68.0,29.97,NE,37,1.0,5.0,67,0.00,,,0.00,,2013-09-08 15:23:00,
2013-09-08 11:45:00,80.0,66.0,29.96,NNW,338,2.0,5.0,63,0.00,,,0.00,,2013-09-08 15:45:00,
2013-09-08 11:55:00,81.0,67.0,29.96,NE,40,1.0,7.0,62,0.00,,,0.00,,2013-09-08 15:55:00,
2013-09-08 12:14:00,81.0,65.0,29.96,WSW,250,2.0,5.0,59,0.00,,,0.00,,2013-09-08 16:14:00,
2013-09-08 12:24:00,82.0,66.0,29.96,WSW,240,1.0,4.0,58,0.00,,,0.00,,2013-09-08 16:24:00,
2013-09-08 12:44:00,83.0,66.0,29.96,NE,44,2.0,5.0,56,0.00,,,0.00,,2013-09-08 16:44:00,
2013-09-08 12:54:00,84.0,65.0,29.96,WNW,302,2.0,4.0,53,0.00,,,0.00,,2013-09-08 16:54:00,
2013-09-08 13:12:00,84.0,65.0,29.95,NW,316,2.0,3.0,53,0.00,,,0.00,,2013-09-08 17:12:00,
2013-09-08 13:24:00,84.0,66.0,29.95,South,183,1.0,7.0,54,0.00,,,0.00,,2013-09-08 17:24:00,
2013-09-08 13:53:00,86.0,65.0,29.94,SSW,211,1.0,3.0,50,0.00,,,0.00,,2013-09-08 17:53:00,
2013-09-08 14:13:00,85.0,65.0,29.93,SW,232,1.0,4.0,52,0.00,,,0.00,,2013-09-08 18:13:00,
2013-09-08 14:22:00,86.0,65.0,29.93,SE,143,0.0,5.0,50,0.00,,,0.00,,2013-09-08 18:22:00,
2013-09-08 14:42:00,87.0,63.0,29.93,NE,46,1.0,4.0,45,0.00,,,0.00,,2013-09-08 18:42:00,
2013-09-08 14:52:00,86.0,63.0,29.93,NE,39,3.0,4.0,46,0.00,,,0.00,,2013-09-08 18:52:00,
2013-09-08 15:12:00,86.0,63.0,29.93,ENE,61,1.0,3.0,46,0.00,,,0.00,,2013-09-08 19:12:00,
2013-09-08 15:22:00,86.0,62.0,29.92,NE,47,2.0,2.0,44,0.00,,,0.00,,2013-09-08 19:22:00,
2013-09-08 15:42:00,87.0,62.0,29.92,West,276,1.0,4.0,43,0.00,,,0.00,,2013-09-08 19:42:00,
2013-09-08 15:52:00,87.0,63.0,29.92,WSW,249,2.0,4.0,45,0.00,,,0.00,,2013-09-08 19:52:00,
2013-09-08 16:12:00,87.0,62.0,29.92,ENE,58,2.0,4.0,44,0.00,,,0.00,,2013-09-08 20:12:00,
2013-09-08 16:22:00,87.0,63.0,29.92,ESE,114,1.0,3.0,45,0.00,,,0.00,,2013-09-08 20:22:00,
2013-09-08 16:42:00,88.0,65.0,29.92,East,92,2.0,3.0,46,0.00,,,0.00,,2013-09-08 20:42:00,
2013-09-08 16:53:00,88.0,61.0,29.92,ESE,118,1.0,3.0,40,0.00,,,0.00,,2013-09-08 20:53:00,
2013-09-08 17:12:00,90.0,62.0,29.92,West,280,1.0,3.0,40,0.00,,,0.00,,2013-09-08 21:12:00,
2013-09-08 17:22:00,89.0,61.0,29.92,ESE,112,0.0,3.0,40,0.00,,,0.00,,2013-09-08 21:22:00,
2013-09-08 17:43:00,89.0,63.0,29.92,NNE,15,0.0,4.0,42,0.00,,,0.00,,2013-09-08 21:43:00,
2013-09-08 17:54:00,88.0,64.0,29.92,NNE,22,2.0,4.0,45,0.00,,,0.00,,2013-09-08 21:54:00,
2013-09-08 18:13:00,87.0,64.0,29.92,East,81,2.0,5.0,46,0.00,,,0.00,,2013-09-08 22:13:00,
2013-09-08 18:25:00,87.0,62.0,29.93,SSE,166,1.0,5.0,43,0.00,,,0.00,,2013-09-08 22:25:00,
2013-09-08 18:53:00,87.0,65.0,29.92,NE,36,1.0,3.0,49,0.00,,,0.00,,2013-09-08 22:53:00,
2013-09-08 19:12:00,86.0,64.0,29.93,NE,49,0.0,3.0,48,0.00,,,0.00,,2013-09-08 23:12:00,
2013-09-08 19:22:00,86.0,66.0,29.93,NE,52,0.0,1.0,51,0.00,,,0.00,,2013-09-08 23:22:00,
2013-09-08 19:53:00,80.0,67.0,29.94,NE,52,0.0,0.0,65,0.00,,,0.00,,2013-09-08 23:53:00,
2013-09-08 20:11:00,77.0,65.0,29.94,NE,54,0.0,0.0,67,0.00,,,0.00,,2013-09-09 00:11:00,
2013-09-08 20:22:00,75.0,65.0,29.95,NE,54,0.0,0.0,71,0.00,,,0.00,,2013-09-09 00:22:00,
2013-09-08 20:42:00,74.0,66.0,29.95,NE,54,0.0,0.0,75,0.00,,,0.00,,2013-09-09 00:42:00,
2013-09-08 20:52:00,72.0,65.0,29.95,NE,53,0.0,0.0,78,0.00,,,0.00,,2013-09-09 00:52:00,
2013-09-08 21:12:00,72.0,65.0,29.95,NE,53,0.0,0.0,79,0.00,,,0.00,,2013-09-09 01:12:00,
2013-09-08 21:21:00,72.0,66.0,29.96,NE,53,0.0,0.0,81,0.00,,,0.00,,2013-09-09 01:21:00,
2013-09-08 21:42:00,71.0,65.0,29.96,NE,54,0.0,0.0,82,0.00,,,0.00,,2013-09-09 01:42:00,
2013-09-08 21:52:00,70.0,65.0,29.97,NE,53,0.0,0.0,84,0.00,,,0.00,,2013-09-09 01:52:00,
2013-09-08 22:11:00,71.0,66.0,29.98,NE,53,0.0,0.0,84,0.00,,,0.00,,2013-09-09 02:11:00,
2013-09-08 22:22:00,70.0,66.0,29.98,NE,53,0.0,0.0,86,0.00,,,0.00,,2013-09-09 02:22:00,
2013-09-08 22:42:00,70.0,66.0,29.98,NE,54,0.0,0.0,86,0.00,,,0.00,,2013-09-09 02:42:00,
2013-09-08 22:53:00,69.0,65.0,29.98,NE,54,0.0,0.0,86,0.00,,,0.00,,2013-09-09 02:53:00,
2013-09-08 23:12:00,70.0,67.0,29.98,NE,53,0.0,0.0,89,0.00,,,0.00,,2013-09-09 03:12:00,
2013-09-08 23:22:00,70.0,66.0,29.98,NE,54,0.0,0.0,86,0.00,,,0.00,,2013-09-09 03:22:00,
2013-09-08 23:55:00,69.0,65.0,29.98,NE,54,0.0,0.0,87,0.00,,,0.00,,2013-09-09 03:55:00,